TimeMST,TemperatureF,Dew PointF,Humidity,Sea Level PressureIn,VisibilityMPH,Wind Direction,Wind SpeedMPH,Gust SpeedMPH,PrecipitationIn,Events,Conditions,WindDirDegrees,DateUTC
12:51 AM,68.0,42.8,40,29.85,10.0,ENE,9.2,-,N/A,,Partly Cloudy,70,2013-03-16 07:51:00
1:51 AM,66.9,42.1,40,29.80,10.0,East,8.1,-,N/A,,Partly Cloudy,90,2013-03-16 08:51:00
2:51 AM,64.9,41.0,42,29.80,10.0,East,8.1,-,N/A,,Partly Cloudy,100,2013-03-16 09:51:00
3:51 AM,63.0,42.1,46,29.78,10.0,East,5.8,-,N/A,,Clear,100,2013-03-16 10:51:00
4:51 AM,63.0,41.0,45,29.78,10.0,East,5.8,-,N/A,,Partly Cloudy,100,2013-03-16 11:51:00
5:51 AM,60.8,41.0,48,29.82,10.0,East,6.9,-,N/A,,Scattered Clouds,100,2013-03-16 12:51:00
6:51 AM,61.0,41.0,48,29.79,10.0,East,8.1,-,N/A,,Mostly Cloudy,90,2013-03-16 13:51:00
7:51 AM,64.9,41.0,42,29.81,10.0,East,5.8,-,N/A,,Mostly Cloudy,90,2013-03-16 14:51:00
8:51 AM,66.9,39.9,37,29.82,10.0,East,5.8,-,N/A,,Mostly Cloudy,90,2013-03-16 15:51:00
9:51 AM,71.1,39.0,31,29.82,10.0,East,5.8,-,N/A,,Mostly Cloudy,100,2013-03-16 16:51:00
10:51 AM,77.0,30.9,19,29.81,10.0,ESE,6.9,-,N/A,,Mostly Cloudy,120,2013-03-16 17:51:00
11:51 AM,81.0,28.9,15,29.79,10.0,ESE,3.5,-,N/A,,Scattered Clouds,120,2013-03-16 18:51:00
12:51 PM,84.9,28.0,13,29.76,10.0,Variable,4.6,-,N/A,,Mostly Cloudy,0,2013-03-16 19:51:00
1:51 PM,82.9,25.0,12,29.72,10.0,Calm,Calm,-,N/A,,Mostly Cloudy,0,2013-03-16 20:51:00
2:51 PM,87.1,25.0,10,29.69,10.0,SW,5.8,-,N/A,,Scattered Clouds,220,2013-03-16 21:51:00
3:51 PM,87.1,25.0,10,29.68,10.0,West,9.2,-,N/A,,Scattered Clouds,280,2013-03-16 22:51:00
4:51 PM,87.1,21.9,9,29.67,10.0,West,10.4,-,N/A,,Scattered Clouds,260,2013-03-16 23:51:00
5:51 PM,86.0,19.9,9,29.68,10.0,WNW,15.0,-,N/A,,Partly Cloudy,290,2013-03-17 00:51:00
6:51 PM,84.9,12.9,7,29.68,10.0,West,8.1,-,N/A,,Partly Cloudy,270,2013-03-17 01:51:00
7:51 PM,80.1,23.0,12,29.69,10.0,Calm,Calm,-,N/A,,Partly Cloudy,0,2013-03-17 02:51:00
8:51 PM,77.0,28.0,17,29.71,10.0,SW,3.5,-,N/A,,Partly Cloudy,220,2013-03-17 03:51:00
9:51 PM,75.9,23.0,14,29.72,10.0,ESE,3.5,-,N/A,,Clear,110,2013-03-17 04:51:00
10:51 PM,71.1,34.0,26,29.72,10.0,East,6.9,-,N/A,,Clear,80,2013-03-17 05:51:00
11:51 PM,68.0,39.0,35,29.72,10.0,East,9.2,-,N/A,,Clear,80,2013-03-17 06:51:00